Wind_Speed
4 3 4 3 4 3 3 1 3 3 2 1 3 3 5 6 4 6 3 4 7 17 25 24 22 23 21 20 18 17 16 14 13 12 12 11 10 10 9 7 7 6 7 7 6 3 3 2 2
3 3 3 1 4 4 2 0 2 2 3 3 5 5 6 7 9 10 10 6 8 14 24 24 24 23 22 20 19 18 17 15 14 13 13 10 10 12 11 9 10 10 10 10 6 6 5 4 4
2 1 3 2 2 3 3 1 2 2 6 4 3 4 5 3 5 3 5 5 10 16 23 24 25 24 23 22 20 19 17 16 14 12 11 12 13 11 7 9 11 14 15 11 8 8 8 8 8
1 1 2 4 7 8 6 8 10 11 1 4 4 7 6 9 6 5 6 6 11 15 21 23 23 24 24 23 21 20 17 16 16 15 16 14 13 12 9 9 12 14 13 12 10 10 8 8 8
3 1 3 3 5 5 8 9 7 5 4 3 3 3 5 11 7 10 10 7 9 14 18 20 23 24 23 23 23 21 20 19 19 21 16 14 13 12 11 11 12 12 12 10 11 9 8 6 5
2 1 3 5 4 5 8 6 4 5 3 2 4 5 5 6 4 6 6 8 10 14 18 19 21 23 24 23 22 23 23 23 24 23 15 15 13 11 10 11 11 11 10 10 8 6 4 3 2
2 2 3 5 7 5 2 1 3 4 3 5 3 5 6 9 6 9 10 9 11 14 18 20 21 22 24 25 25 22 23 25 25 27 18 15 12 11 11 11 11 9 9 7 6 5 5 4 3
2 2 2 4 3 5 2 2 2 5 6 6 5 4 6 8 16 17 14 12 14 16 18 21 23 24 26 27 27 26 25 26 26 26 21 16 14 14 14 12 11 10 9 9 8 7 5 4 4
4 4 5 4 4 2 3 4 3 6 11 9 12 18 17 22 22 21 19 17 18 20 22 24 24 25 27 28 28 27 27 27 26 26 23 18 17 16 15 14 12 11 11 11 10 8 6 5 4
5 4 5 4 5 7 8 6 9 7 17 22 18 20 19 20 22 24 24 24 24 23 23 25 26 26 27 29 30 29 30 29 28 27 26 23 20 19 17 16 14 13 12 11 9 7 6 5 4
5 7 7 9 15 10 10 12 7 11 17 17 20 24 19 24 28 28 29 29 27 24 27 26 28 29 29 30 31 33 33 32 32 30 28 26 23 23 22 20 18 17 15 14 12 10 8 6 5
6 14 13 9 9 5 9 9 13 18 33 31 29 26 28 27 25 26 27 27 27 25 26 27 30 32 32 33 33 34 36 35 35 32 30 29 28 27 26 23 22 20 19 16 14 12 10 8 6
9 12 13 16 13 15 17 27 20 27 29 32 28 27 28 28 28 25 26 25 24 25 26 27 29 33 35 36 36 37 38 38 37 36 34 33 32 31 29 27 25 24 21 19 16 14 12 9 7
3 8 14 12 18 16 11 29 11 16 15 23 23 26 25 23 24 30 32 30 26 24 25 26 28 31 36 39 40 40 40 40 40 39 37 36 35 34 33 31 29 27 24 22 19 17 14 11 8
4 11 15 17 13 8 9 14 16 25 13 20 27 24 27 34 33 36 37 36 36 38 36 35 32 31 35 38 41 42 43 43 43 41 40 39 38 38 36 35 33 31 28 25 23 20 17 14 11
5 4 10 7 5 4 9 20 21 18 11 21 28 34 35 35 33 29 27 28 23 27 32 31 34 35 36 38 41 44 46 46 45 45 44 42 42 41 39 39 36 34 32 29 26 23 21 17 13
5 11 14 16 4 3 10 14 18 25 26 37 36 36 33 31 30 22 21 22 18 20 24 26 28 32 36 38 42 45 47 49 47 48 48 46 46 44 43 41 39 37 34 32 30 27 24 20 16
15 13 11 12 14 11 17 20 21 33 31 35 37 35 26 24 21 23 18 15 16 16 18 21 24 27 31 36 41 46 49 51 51 52 51 49 49 47 46 44 42 40 39 37 33 30 27 24 21
10 14 18 23 20 16 20 19 18 31 30 33 32 22 20 18 17 19 20 17 14 13 13 16 19 21 29 33 38 43 49 51 53 54 53 52 52 51 49 47 44 44 44 40 37 34 31 29 25
13 14 21 16 15 3 14 19 23 18 17 19 18 17 13 13 19 25 28 25 21 19 17 15 14 16 22 27 31 34 39 45 48 53 57 56 55 54 51 50 49 48 46 43 41 39 36 34 29
13 14 17 16 13 13 11 13 5 9 13 7 6 5 11 18 23 27 29 28 26 24 20 15 15 15 15 19 25 28 35 38 40 45 48 54 55 55 53 52 51 50 48 47 45 44 42 38 34
13 10 15 11 6 10 8 11 8 7 9 3 10 19 16 20 21 22 25 30 32 29 25 20 14 12 12 14 18 24 26 32 35 39 41 46 49 53 55 54 53 51 50 50 48 45 43 41 38
5 2 2 1 6 7 3 7 1 2 2 7 14 17 18 19 21 24 26 29 31 32 31 24 22 19 15 12 12 16 19 21 24 29 31 33 37 49 55 55 56 54 53 52 49 47 46 43 40
4 1 1 0 3 8 4 7 3 3 3 6 13 15 16 18 20 23 25 30 35 32 29 29 28 24 19 15 13 11 14 18 22 25 28 30 30 33 48 55 57 56 55 54 51 48 46 44 44
5 3 7 6 6 12 4 6 8 7 8 7 10 13 19 19 22 27 32 31 31 32 31 30 28 28 25 20 15 11 11 13 19 19 22 24 28 30 33 47 56 57 56 54 53 50 49 48 48
9 7 6 8 15 17 6 10 8 11 15 16 17 17 18 20 22 26 26 27 28 29 31 31 29 28 27 27 23 18 16 14 14 16 20 21 24 26 28 32 47 55 56 55 54 52 52 51 50
6 7 3 7 6 8 16 23 17 9 11 12 14 14 17 19 18 19 21 23 25 26 28 28 29 29 28 27 27 26 21 17 17 18 19 20 21 23 26 29 32 44 54 55 55 55 53 51 50
8 3 8 5 8 20 17 20 13 7 5 7 9 11 12 13 15 16 17 18 20 21 22 24 26 27 28 28 28 28 27 25 20 19 19 20 19 20 23 27 31 34 43 52 55 57 54 54 53
10 8 6 5 6 7 10 13 7 3 4 5 5 8 12 15 16 16 16 15 18 21 24 24 23 26 28 28 28 26 27 28 25 24 21 21 23 22 22 24 28 32 38 43 53 57 57 56 56
4 12 14 10 11 13 14 18 2 3 6 6 4 2 3 7 12 13 14 17 18 20 23 23 25 25 25 25 24 25 26 26 27 28 27 25 20 24 27 26 28 30 35 39 46 54 61 60 57
Wind_Direction
255 282 319 334 255 254 258 211 317 281 269 294 141 245 315 302 284 328 336 253 193 196 202 205 206 206 205 205 203 201 202 207 216 224 234 239 246 245 232 215 195 190 212 231 253 252 250 256 268
274 306 334 291 264 270 72 70 245 343 326 278 246 247 258 290 253 270 292 264 200 192 201 207 211 211 210 210 211 210 210 212 214 223 229 233 238 237 236 212 193 201 221 240 252 253 253 251 255
279 323 296 315 274 308 351 188 8 331 295 254 264 249 282 260 265 253 298 272 209 192 199 207 211 215 218 219 217 216 213 212 212 213 219 215 218 229 223 213 210 220 228 239 244 245 260 272 278
145 49 64 267 281 280 267 300 302 305 263 224 275 271 263 266 278 266 295 283 226 209 201 209 211 215 218 221 221 213 216 210 208 212 211 213 226 235 234 235 231 238 248 257 261 264 268 280 282
164 167 230 262 272 273 264 291 293 290 296 212 215 292 270 301 290 286 273 268 233 223 212 212 211 214 217 218 218 217 211 205 209 214 217 229 239 247 238 239 243 245 250 263 270 279 284 277 275
153 222 239 268 271 271 283 272 273 260 262 242 229 259 269 293 311 323 296 255 238 229 221 219 218 218 217 217 217 215 211 206 211 224 226 242 244 243 238 235 236 240 246 249 254 256 257 256 266
227 227 291 288 289 284 243 209 235 301 281 266 254 270 277 276 284 316 299 273 247 232 227 227 224 223 222 221 220 216 216 217 220 234 240 241 239 239 232 227 228 232 239 240 229 210 205 212 226
159 237 223 227 284 283 213 228 226 265 311 272 223 244 289 281 297 298 292 270 254 242 237 233 229 225 223 222 224 224 221 224 229 239 247 245 237 227 221 220 221 218 211 208 205 208 214 228 246
162 237 256 255 223 274 208 252 214 250 269 262 247 256 278 293 291 287 283 271 258 250 244 239 236 231 226 227 225 225 227 229 232 237 245 242 235 230 222 219 216 210 204 202 203 206 214 228 248
220 233 252 227 232 265 280 264 283 274 276 269 272 277 292 291 295 283 278 277 267 259 253 245 241 238 232 230 228 227 228 230 233 235 239 235 229 227 222 223 217 211 207 206 209 215 228 240 253
192 245 248 243 249 262 277 273 253 266 275 275 286 294 292 291 292 285 284 284 276 269 255 251 245 240 236 233 228 227 229 229 232 234 236 232 226 222 219 220 215 213 210 211 214 218 223 228 241
230 243 242 264 244 237 265 280 256 254 267 282 286 289 289 289 289 290 288 285 281 269 263 253 244 243 240 237 231 231 230 230 232 233 233 229 226 223 222 222 218 215 212 213 216 218 219 224 237
236 257 251 249 250 253 269 266 267 269 272 284 286 291 296 296 296 300 294 285 276 272 267 257 250 244 241 239 237 233 233 233 233 232 232 228 226 226 225 223 220 218 216 217 218 218 220 225 236
310 273 273 271 256 251 245 272 296 265 283 290 292 292 292 287 294 298 300 299 292 289 286 274 257 248 243 240 237 237 236 234 232 233 232 230 229 227 226 224 222 221 219 219 220 221 223 227 238
311 295 291 265 256 245 226 269 240 278 284 283 289 292 295 290 289 291 294 291 287 281 277 270 266 254 244 242 239 238 238 236 235 234 232 231 230 228 226 225 224 223 222 221 222 222 223 226 234
258 262 284 297 148 209 190 278 289 308 308 298 294 291 288 291 295 296 292 293 285 276 273 269 260 255 250 244 241 239 238 237 237 236 234 231 230 228 227 226 225 225 223 222 223 223 223 224 230
222 273 270 295 232 147 210 283 297 298 298 291 290 287 295 300 301 315 312 305 299 278 268 264 261 253 248 246 241 240 239 238 237 236 236 233 231 229 228 228 227 226 225 225 224 223 224 225 229
281 280 265 272 292 283 286 272 283 290 286 280 291 297 303 301 323 329 339 329 313 304 287 271 260 254 251 246 241 239 237 237 236 237 236 235 233 230 228 227 227 227 226 225 224 224 223 222 225
290 282 284 278 285 296 290 299 294 282 287 286 286 305 307 321 348 12 15 2 337 323 304 291 275 264 255 248 240 235 236 237 236 237 237 236 234 231 229 229 229 228 228 228 226 224 221 221 221
260 268 271 282 283 263 287 300 293 295 271 277 298 303 330 10 26 23 24 23 15 359 323 301 282 271 264 259 253 243 241 239 238 238 239 237 235 233 230 229 229 230 228 225 224 224 221 220 219
253 258 273 272 320 275 301 280 251 280 268 327 322 320 53 40 22 19 25 26 22 16 8 344 326 297 266 259 258 249 244 242 243 241 241 240 237 236 233 232 232 231 229 229 228 226 224 224 219
273 268 265 280 307 298 14 304 294 263 276 358 43 61 41 24 28 30 30 34 33 30 27 21 4 342 314 286 267 259 259 257 258 257 257 255 245 240 237 235 235 233 231 230 229 228 227 225 223
258 55 349 348 283 300 287 267 2 253 225 131 63 49 34 33 31 28 27 35 37 37 34 30 30 26 9 338 307 289 276 266 264 266 268 265 259 244 239 237 238 234 231 232 232 229 226 227 228
136 139 107 257 272 265 297 224 346 134 76 77 92 58 47 34 35 34 28 28 31 33 36 37 35 34 30 21 359 331 306 292 281 283 278 274 269 261 247 239 238 239 236 233 232 231 231 230 229
212 261 285 257 242 267 137 227 250 253 63 62 54 62 50 37 33 34 30 27 23 23 27 30 31 28 24 17 6 352 335 313 301 294 287 282 277 273 264 247 240 239 239 239 236 231 229 228 228
196 209 237 274 274 283 93 261 277 102 73 62 54 47 37 35 31 32 29 26 23 19 18 17 22 23 22 22 16 5 347 329 312 307 301 291 286 284 273 264 248 242 241 240 239 237 233 229 227
156 207 283 269 264 281 265 259 263 150 75 65 53 41 32 26 26 26 21 15 12 13 14 16 13 13 12 13 14 18 3 345 330 315 302 293 289 284 279 273 264 251 245 243 242 239 236 234 232
245 330 250 221 258 254 253 259 256 205 105 73 44 33 28 23 20 16 16 9 8 10 7 2 6 11 9 5 7 8 9 7 351 332 317 302 294 287 281 275 271 262 252 246 243 242 238 235 234
247 242 232 268 255 263 262 252 343 344 132 86 45 23 14 9 4 3 4 4 1 1 6 12 6 357 359 1 1 1 359 359 359 2 343 319 307 299 284 274 271 270 264 252 244 243 241 237 235
259 259 242 246 247 240 263 264 108 148 150 149 160 110 24 14 355 352 358 358 356 356 357 360 2 4 4 359 351 351 350 350 352 354 350 349 328 307 299 284 269 263 264 262 253 246 244 239 235
Height
1553 1553 1553 1553 1553 1549 1545 1543 1544 1542 1541 1542 1542 1542 1539 1538 1534 1536 1532 1531 1531 1531 1534 1537 1539 1542 1545 1547 1549 1551 1553 1554 1555 1556 1556 1558 1558 1559 1559 1561 1561 1560 1559 1559 1560 1559 1559 1558 1558
1553 1553 1554 1553 1552 1549 1539 1541 1543 1542 1543 1542 1542 1541 1540 1535 1534 1533 1532 1531 1531 1531 1534 1536 1538 1541 1543 1545 1547 1549 1551 1553 1554 1555 1556 1557 1557 1557 1557 1559 1559 1559 1559 1559 1560 1559 1558 1557 1558
1553 1554 1555 1551 1552 1547 1543 1541 1541 1543 1543 1543 1541 1539 1538 1534 1533 1532 1531 1530 1531 1531 1533 1535 1537 1539 1541 1543 1545 1547 1549 1551 1552 1554 1555 1555 1555 1554 1556 1557 1557 1557 1557 1558 1558 1558 1557 1557 1557
1554 1555 1557 1553 1550 1546 1545 1539 1542 1541 1542 1542 1541 1538 1536 1532 1532 1531 1530 1530 1530 1531 1532 1533 1536 1538 1540 1542 1543 1546 1547 1549 1551 1552 1552 1553 1552 1554 1555 1555 1555 1555 1556 1556 1556 1557 1556 1556 1556
1554 1554 1552 1554 1551 1547 1544 1543 1543 1540 1540 1540 1541 1535 1535 1531 1530 1529 1529 1529 1529 1530 1531 1533 1535 1537 1539 1540 1542 1544 1546 1547 1549 1549 1550 1550 1550 1551 1553 1553 1553 1554 1554 1554 1555 1555 1554 1554 1555
1554 1554 1552 1550 1547 1545 1543 1543 1543 1540 1539 1540 1539 1537 1533 1530 1529 1528 1527 1527 1528 1528 1529 1530 1532 1534 1536 1538 1540 1542 1543 1545 1546 1547 1548 1548 1548 1550 1550 1551 1551 1552 1552 1553 1554 1553 1553 1553 1554
1553 1552 1550 1551 1547 1544 1540 1542 1541 1538 1538 1537 1537 1534 1531 1529 1528 1528 1527 1526 1526 1526 1527 1527 1529 1530 1533 1535 1537 1539 1541 1542 1544 1544 1546 1546 1547 1548 1548 1549 1550 1550 1550 1551 1551 1551 1553 1554 1553
1554 1552 1554 1550 1544 1543 1540 1540 1540 1539 1535 1534 1534 1530 1527 1527 1526 1525 1525 1524 1524 1524 1524 1525 1525 1527 1528 1530 1533 1535 1537 1539 1541 1542 1543 1544 1545 1546 1547 1548 1549 1549 1549 1550 1551 1552 1552 1552 1553
1552 1551 1549 1547 1548 1536 1539 1539 1538 1537 1535 1532 1529 1526 1527 1524 1523 1522 1521 1521 1520 1520 1520 1521 1522 1523 1525 1526 1528 1531 1533 1535 1537 1539 1539 1541 1542 1543 1544 1545 1546 1547 1548 1549 1550 1551 1551 1551 1551
1551 1548 1541 1540 1539 1536 1536 1538 1537 1536 1530 1527 1524 1522 1521 1521 1520 1519 1518 1517 1515 1515 1515 1516 1517 1518 1520 1522 1524 1526 1527 1529 1531 1533 1534 1537 1539 1540 1542 1543 1544 1545 1546 1548 1548 1549 1549 1549 1550
1548 1540 1537 1537 1537 1537 1535 1535 1534 1530 1523 1523 1522 1519 1519 1516 1515 1513 1512 1511 1510 1511 1510 1511 1511 1512 1514 1515 1518 1520 1521 1523 1525 1526 1529 1531 1534 1536 1538 1539 1541 1542 1544 1545 1546 1546 1547 1548 1548
1545 1538 1537 1534 1534 1534 1533 1530 1526 1527 1517 1517 1516 1515 1512 1510 1507 1506 1505 1505 1504 1505 1505 1505 1506 1507 1508 1509 1511 1513 1514 1516 1518 1520 1523 1525 1528 1531 1533 1535 1537 1539 1541 1542 1543 1544 1545 1545 1546
1541 1535 1533 1531 1531 1531 1530 1521 1523 1515 1515 1511 1510 1507 1505 1504 1501 1500 1498 1499 1499 1498 1498 1500 1500 1501 1502 1502 1504 1506 1507 1509 1512 1514 1516 1519 1521 1524 1527 1530 1532 1534 1536 1538 1539 1540 1542 1542 1542
1537 1535 1531 1529 1527 1527 1526 1515 1520 1507 1510 1506 1504 1502 1501 1499 1497 1494 1493 1493 1493 1493 1493 1493 1492 1493 1494 1494 1495 1496 1498 1500 1503 1505 1509 1512 1515 1518 1521 1523 1526 1529 1531 1533 1535 1537 1538 1538 1539
1538 1534 1526 1520 1520 1523 1523 1515 1509 1503 1506 1502 1498 1495 1493 1490 1490 1488 1486 1484 1483 1481 1482 1481 1482 1484 1484 1485 1487 1488 1490 1492 1495 1498 1501 1505 1508 1511 1515 1518 1520 1523 1526 1529 1531 1532 1534 1535 1535
1537 1536 1527 1510 1517 1519 1520 1508 1499 1504 1503 1499 1496 1490 1486 1483 1482 1481 1478 1473 1471 1469 1467 1470 1471 1473 1475 1476 1479 1481 1483 1486 1488 1491 1494 1498 1500 1505 1508 1510 1514 1518 1520 1523 1526 1528 1530 1531 1532
1533 1525 1521 1515 1512 1515 1518 1507 1501 1501 1501 1491 1486 1483 1482 1479 1473 1474 1470 1467 1463 1460 1458 1458 1460 1462 1465 1468 1470 1472 1475 1477 1481 1483 1485 1489 1493 1497 1501 1505 1508 1511 1515 1518 1521 1523 1525 1527 1528
1518 1518 1518 1520 1504 1509 1511 1507 1503 1496 1492 1484 1480 1477 1478 1473 1472 1467 1463 1461 1459 1457 1454 1453 1453 1454 1456 1459 1461 1463 1464 1466 1471 1473 1476 1481 1484 1490 1494 1498 1501 1505 1508 1511 1515 1518 1520 1522 1524
1520 1521 1518 1508 1506 1510 1500 1499 1496 1486 1483 1478 1474 1477 1473 1473 1469 1466 1462 1459 1456 1451 1448 1447 1447 1449 1448 1449 1450 1452 1453 1457 1462 1465 1468 1472 1475 1479 1484 1490 1495 1497 1500 1505 1509 1511 1514 1516 1519
1519 1520 1513 1505 1504 1509 1497 1495 1486 1481 1473 1472 1472 1471 1471 1472 1469 1465 1460 1455 1454 1449 1445 1442 1440 1441 1444 1446 1446 1448 1450 1450 1453 1457 1460 1464 1467 1471 1475 1478 1482 1488 1493 1497 1500 1504 1507 1509 1513
1515 1515 1505 1506 1506 1501 1499 1484 1482 1475 1473 1471 1469 1471 1473 1472 1470 1465 1460 1456 1451 1447 1442 1440 1440 1440 1438 1440 1444 1444 1443 1445 1447 1449 1453 1456 1463 1467 1470 1472 1474 1479 1483 1488 1492 1495 1498 1502 1506
1514 1505 1507 1508 1508 1499 1502 1481 1474 1467 1467 1470 1472 1472 1476 1475 1472 1468 1463 1457 1452 1448 1445 1439 1437 1438 1439 1439 1440 1440 1443 1444 1447 1447 1447 1451 1458 1462 1466 1468 1469 1472 1475 1478 1483 1489 1493 1495 1498
1503 1507 1511 1512 1506 1504 1496 1500 1463 1468 1467 1467 1475 1479 1479 1479 1475 1470 1467 1459 1455 1447 1438 1442 1440 1439 1439 1439 1438 1439 1440 1441 1442 1442 1443 1444 1446 1452 1456 1462 1465 1465 1467 1471 1476 1481 1483 1489 1493
1510 1509 1509 1513 1508 1494 1481 1490 1466 1465 1465 1469 1478 1481 1480 1477 1473 1468 1467 1461 1450 1448 1448 1445 1442 1440 1440 1440 1439 1437 1438 1439 1437 1438 1438 1441 1440 1442 1447 1452 1456 1461 1463 1463 1465 1471 1477 1480 1483
1510 1507 1504 1500 1499 1487 1484 1490 1465 1465 1471 1472 1474 1477 1475 1477 1471 1462 1457 1457 1460 1458 1454 1448 1444 1444 1444 1442 1440 1437 1434 1435 1436 1435 1432 1434 1435 1435 1437 1441 1446 1450 1456 1461 1462 1461 1464 1469 1472
1500 1497 1498 1503 1490 1477 1501 1475 1456 1467 1476 1477 1476 1477 1476 1474 1473 1469 1467 1466 1463 1462 1458 1456 1449 1446 1446 1444 1441 1437 1434 1431 1431 1431 1432 1429 1429 1430 1432 1433 1436 1442 1448 1453 1456 1459 1459 1459 1461
1500 1499 1491 1496 1498 1494 1468 1453 1448 1461 1475 1478 1479 1481 1480 1479 1475 1474 1473 1472 1468 1464 1459 1457 1455 1451 1448 1446 1442 1434 1435 1431 1429 1427 1428 1427 1424 1424 1426 1428 1429 1433 1437 1441 1448 1450 1451 1454 1457
1498 1492 1494 1494 1498 1489 1468 1458 1449 1456 1472 1478 1481 1482 1481 1479 1476 1475 1472 1473 1471 1469 1463 1458 1456 1452 1447 1446 1439 1436 1435 1432 1428 1426 1424 1424 1420 1419 1420 1421 1423 1425 1427 1431 1436 1442 1443 1444 1447
1489 1492 1492 1489 1487 1484 1478 1458 1459 1467 1478 1477 1480 1481 1482 1480 1479 1477 1474 1470 1468 1465 1461 1456 1453 1450 1444 1439 1442 1437 1435 1433 1428 1424 1423 1420 1416 1415 1414 1414 1414 1417 1420 1420 1423 1430 1435 1431 1435
1483 1483 1481 1482 1477 1467 1465 1456 1470 1473 1477 1477 1481 1481 1481 1479 1479 1475 1472 1470 1466 1464 1459 1455 1452 1448 1445 1441 1443 1437 1433 1430 1427 1423 1421 1418 1414 1413 1410 1409 1407 1407 1410 1412 1414 1417 1424 1421 1419